owner,sensor,date,latitude,longitude,vertical_datum,wind_speed,wind_to_direction,wind_speed_of_gust,qcFlag 
ADCP,ioos:station:wmo:42395:2,2017-08-01T00:20:00Z,26.4040,-90.7920,3.0,4.0,350.0,5.0, 
ADCP,ioos:station:wmo:42395:2,2017-08-01T01:20:00Z,26.4040,-90.7920,3.0,5.0,30.0,7.0, 
ADCP,ioos:station:wmo:42395:2,2017-08-01T02:40:00Z,26.4040,-90.7920,3.0,5.0,30.0,6.0, 
ADCP,ioos:station:wmo:42395:2,2017-08-01T03:40:00Z,26.4040,-90.7920,3.0,5.0,70.0,7.0, 
ADCP,ioos:station:wmo:42395:2,2017-08-01T05:00:00Z,26.4040,-90.7920,3.0,6.0,80.0,8.0, 
ADCP,ioos:station:wmo:42395:2,2017-08-01T06:20:00Z,26.4040,-90.7920,3.0,5.0,90.0,7.0, 
ADCP,ioos:station:wmo:42395:2,2017-08-01T07:20:00Z,26.4040,-90.7920,3.0,6.0,90.0,7.0, 
ADCP,ioos:station:wmo:42395:2,2017-08-01T08:20:00Z,26.4040,-90.7920,3.0,5.0,100.0,7.0, 
ADCP,ioos:station:wmo:42395:2,2017-08-01T09:40:00Z,26.4040,-90.7920,3.0,4.0,110.0,5.0, 
ADCP,ioos:station:wmo:42395:2,2017-08-01T10:40:00Z,26.4040,-90.7920,3.0,4.0,90.0,5.0, 
ADCP,ioos:station:wmo:42395:2,2017-08-01T12:00:00Z,26.4040,-90.7920,3.0,4.0,100.0,5.0, 
ADCP,ioos:station:wmo:42395:2,2017-08-01T13:20:00Z,26.4040,-90.7920,3.0,2.0,130.0,3.0, 
ADCP,ioos:station:wmo:42395:2,2017-08-01T14:20:00Z,26.4040,-90.7920,3.0,2.0,150.0,3.0, 
ADCP,ioos:station:wmo:42395:2,2017-08-01T15:20:00Z,26.4040,-90.7920,3.0,2.0,160.0,3.0, 
ADCP,ioos:station:wmo:42395:2,2017-08-01T16:40:00Z,26.4040,-90.7920,3.0,3.0,160.0,4.0, 
ADCP,ioos:station:wmo:42395:2,2017-08-01T17:40:00Z,26.4040,-90.7920,3.0,3.0,150.0,4.0, 
ADCP,ioos:station:wmo:42395:2,2017-08-01T19:00:00Z,26.4040,-90.7920,3.0,4.0,200.0,5.0, 
ADCP,ioos:station:wmo:42395:2,2017-08-01T20:20:00Z,26.4040,-90.7920,3.0,3.0,210.0,4.0, 
ADCP,ioos:station:wmo:42395:2,2017-08-01T21:20:00Z,26.4040,-90.7920,3.0,1.2,214.0,2.2, 
ADCP,ioos:station:wmo:42395:2,2017-08-01T22:20:00Z,26.4040,-90.7920,3.0,0.9,217.0,1.9, 
ADCP,ioos:station:wmo:42395:2,2017-08-01T23:40:00Z,26.4040,-90.7920,3.0,1.0,90.0,2.0, 
ADCP,ioos:station:wmo:42395:2,2017-08-02T00:40:00Z,26.4040,-90.7920,3.0,0.0,-9999.0,1.0, 
ADCP,ioos:station:wmo:42395:2,2017-08-02T02:20:00Z,26.4040,-90.7920,3.0,5.0,-9999.0,8.0, 
ADCP,ioos:station:wmo:42395:2,2017-08-02T03:20:00Z,26.4040,-90.7920,3.0,5.0,50.0,6.0, 
ADCP,ioos:station:wmo:42395:2,2017-08-02T04:20:00Z,26.4040,-90.7920,3.0,4.0,70.0,6.0, 
ADCP,ioos:station:wmo:42395:2,2017-08-02T05:20:00Z,26.4040,-90.7920,3.0,4.0,100.0,5.0, 
ADCP,ioos:station:wmo:42395:2,2017-08-02T06:40:00Z,26.4040,-90.7920,3.0,5.0,130.0,6.0, 
ADCP,ioos:station:wmo:42395:2,2017-08-02T07:40:00Z,26.4040,-90.7920,3.0,5.0,160.0,7.0, 
ADCP,ioos:station:wmo:42395:2,2017-08-02T09:20:00Z,26.4040,-90.7920,3.0,6.0,170.0,8.0, 
ADCP,ioos:station:wmo:42395:2,2017-08-02T10:20:00Z,26.4040,-90.7920,3.0,7.0,190.0,9.0, 
ADCP,ioos:station:wmo:42395:2,2017-08-02T11:20:00Z,26.4040,-90.7920,3.0,6.0,200.0,8.0, 
ADCP,ioos:station:wmo:42395:2,2017-08-02T12:20:00Z,26.4040,-90.7920,3.0,5.0,200.0,7.0, 
ADCP,ioos:station:wmo:42395:2,2017-08-02T13:40:00Z,26.4040,-90.7920,3.0,5.0,200.0,6.0, 
ADCP,ioos:station:wmo:42395:2,2017-08-02T14:40:00Z,26.4040,-90.7920,3.0,5.0,200.0,6.0, 
ADCP,ioos:station:wmo:42395:2,2017-08-02T16:20:00Z,26.4040,-90.7920,3.0,5.0,200.0,6.0, 
ADCP,ioos:station:wmo:42395:2,2017-08-02T17:20:00Z,26.4040,-90.7920,3.0,5.0,190.0,6.0, 
ADCP,ioos:station:wmo:42395:2,2017-08-02T18:20:00Z,26.4040,-90.7920,3.0,6.0,200.0,8.0, 
ADCP,ioos:station:wmo:42395:2,2017-08-02T19:20:00Z,26.4040,-90.7920,3.0,5.7,203.0,7.1, 
ADCP,ioos:station:wmo:42395:2,2017-08-02T20:40:00Z,26.4040,-90.7920,3.0,7.0,190.0,8.0, 
ADCP,ioos:station:wmo:42395:2,2017-08-02T21:40:00Z,26.4040,-90.7920,3.0,5.7,192.0,7.0, 
ADCP,ioos:station:wmo:42395:2,2017-08-02T23:20:00Z,26.4040,-90.7920,3.0,3.0,200.0,4.0, 
ADCP,ioos:station:wmo:42395:2,2017-08-03T00:20:00Z,26.4040,-90.7920,3.0,10.0,250.0,13.0, 
ADCP,ioos:station:wmo:42395:2,2017-08-03T01:20:00Z,26.4040,-90.7920,3.0,5.1,292.0,6.4, 
ADCP,ioos:station:wmo:42395:2,2017-08-03T02:20:00Z,26.4040,-90.7920,3.0,3.0,50.0,4.0, 
ADCP,ioos:station:wmo:42395:2,2017-08-03T03:40:00Z,26.4040,-90.7920,3.0,3.2,78.0,4.2, 
ADCP,ioos:station:wmo:42395:2,2017-08-03T04:40:00Z,26.4040,-90.7920,3.0,4.2,95.0,6.1, 
ADCP,ioos:station:wmo:42395:2,2017-08-03T06:20:00Z,26.4040,-90.7920,3.0,6.0,140.0,8.0, 
ADCP,ioos:station:wmo:42395:2,2017-08-03T07:20:00Z,26.4040,-90.7920,3.0,7.0,150.0,8.0, 
ADCP,ioos:station:wmo:42395:2,2017-08-03T08:20:00Z,26.4040,-90.7920,3.0,8.0,140.0,10.0, 
ADCP,ioos:station:wmo:42395:2,2017-08-03T09:20:00Z,26.4040,-90.7920,3.0,9.0,150.0,12.0, 
ADCP,ioos:station:wmo:42395:2,2017-08-03T10:40:00Z,26.4040,-90.7920,3.0,7.0,170.0,9.0, 
ADCP,ioos:station:wmo:42395:2,2017-08-03T11:40:00Z,26.4040,-90.7920,3.0,8.0,190.0,10.0, 
ADCP,ioos:station:wmo:42395:2,2017-08-03T13:20:00Z,26.4040,-90.7920,3.0,9.0,190.0,11.0, 
ADCP,ioos:station:wmo:42395:2,2017-08-03T14:20:00Z,26.4040,-90.7920,3.0,9.0,180.0,11.0, 
ADCP,ioos:station:wmo:42395:2,2017-08-03T15:20:00Z,26.4040,-90.7920,3.0,8.0,200.0,10.0, 
ADCP,ioos:station:wmo:42395:2,2017-08-03T16:20:00Z,26.4040,-90.7920,3.0,7.4,199.0,9.5, 
ADCP,ioos:station:wmo:42395:2,2017-08-03T17:40:00Z,26.4040,-90.7920,3.0,6.0,200.0,8.0, 
ADCP,ioos:station:wmo:42395:2,2017-08-03T18:40:00Z,26.4040,-90.7920,3.0,6.3,200.0,8.1, 
ADCP,ioos:station:wmo:42395:2,2017-08-03T20:20:00Z,26.4040,-90.7920,3.0,6.6,192.0,8.2, 
ADCP,ioos:station:wmo:42395:2,2017-08-03T21:20:00Z,26.4040,-90.7920,3.0,7.0,210.0,11.0, 
ADCP,ioos:station:wmo:42395:2,2017-08-03T22:20:00Z,26.4040,-90.7920,3.0,5.2,260.0,9.0, 
ADCP,ioos:station:wmo:42395:2,2017-08-03T23:20:00Z,26.4040,-90.7920,3.0,9.0,180.0,12.0, 
ADCP,ioos:station:wmo:42395:2,2017-08-04T00:40:00Z,26.4040,-90.7920,3.0,5.4,356.0,7.6, 
ADCP,ioos:station:wmo:42395:2,2017-08-04T01:40:00Z,26.4040,-90.7920,3.0,3.5,60.0,4.8, 
ADCP,ioos:station:wmo:42395:2,2017-08-04T03:20:00Z,26.4040,-90.7920,3.0,6.0,120.0,8.0, 
ADCP,ioos:station:wmo:42395:2,2017-08-04T04:20:00Z,26.4040,-90.7920,3.0,7.9,126.0,9.8, 
ADCP,ioos:station:wmo:42395:2,2017-08-04T05:20:00Z,26.4040,-90.7920,3.0,6.0,130.0,7.0, 
ADCP,ioos:station:wmo:42395:2,2017-08-04T06:40:00Z,26.4040,-90.7920,3.0,6.5,160.0,7.9, 
ADCP,ioos:station:wmo:42395:2,2017-08-04T07:40:00Z,26.4040,-90.7920,3.0,6.6,169.0,8.3, 
ADCP,ioos:station:wmo:42395:2,2017-08-04T09:00:00Z,26.4040,-90.7920,3.0,7.0,172.0,8.3, 
ADCP,ioos:station:wmo:42395:2,2017-08-04T10:20:00Z,26.4040,-90.7920,3.0,6.6,174.0,8.2, 
ADCP,ioos:station:wmo:42395:2,2017-08-04T11:20:00Z,26.4040,-90.7920,3.0,6.0,170.0,7.0, 
ADCP,ioos:station:wmo:42395:2,2017-08-04T12:40:00Z,26.4040,-90.7920,3.0,6.1,169.0,7.3, 
ADCP,ioos:station:wmo:42395:2,2017-08-04T13:40:00Z,26.4040,-90.7920,3.0,6.0,160.0,7.0, 
ADCP,ioos:station:wmo:42395:2,2017-08-04T15:00:00Z,26.4040,-90.7920,3.0,6.4,167.0,8.2, 
ADCP,ioos:station:wmo:42395:2,2017-08-04T16:00:00Z,26.4040,-90.7920,3.0,8.0,170.0,9.0, 
ADCP,ioos:station:wmo:42395:2,2017-08-04T17:20:00Z,26.4040,-90.7920,3.0,7.3,177.0,8.8, 
ADCP,ioos:station:wmo:42395:2,2017-08-04T18:20:00Z,26.4040,-90.7920,3.0,7.0,184.0,8.2, 
ADCP,ioos:station:wmo:42395:2,2017-08-04T19:20:00Z,26.4040,-90.7920,3.0,7.0,190.0,9.0, 
ADCP,ioos:station:wmo:42395:2,2017-08-04T20:40:00Z,26.4040,-90.7920,3.0,6.0,200.0,7.0, 
ADCP,ioos:station:wmo:42395:2,2017-08-04T21:40:00Z,26.4040,-90.7920,3.0,4.4,214.0,5.6, 
ADCP,ioos:station:wmo:42395:2,2017-08-04T23:00:00Z,26.4040,-90.7920,3.0,3.0,250.0,3.9, 
ADCP,ioos:station:wmo:42395:2,2017-08-05T00:20:00Z,26.4040,-90.7920,3.0,1.1,236.0,1.7, 
ADCP,ioos:station:wmo:42395:2,2017-08-05T01:20:00Z,26.4040,-90.7920,3.0,1.1,231.0,1.7, 
ADCP,ioos:station:wmo:42395:2,2017-08-05T02:20:00Z,26.4040,-90.7920,3.0,3.3,22.0,4.9, 
ADCP,ioos:station:wmo:42395:2,2017-08-05T03:40:00Z,26.4040,-90.7920,3.0,3.0,50.0,5.0, 
ADCP,ioos:station:wmo:42395:2,2017-08-05T05:00:00Z,26.4040,-90.7920,3.0,3.0,150.0,4.0, 
ADCP,ioos:station:wmo:42395:2,2017-08-05T06:00:00Z,26.4040,-90.7920,3.0,2.0,150.0,3.0, 
ADCP,ioos:station:wmo:42395:2,2017-08-05T07:20:00Z,26.4040,-90.7920,3.0,2.9,144.0,4.0, 
ADCP,ioos:station:wmo:42395:2,2017-08-05T08:20:00Z,26.4040,-90.7920,3.0,3.0,160.0,4.0, 
ADCP,ioos:station:wmo:42395:2,2017-08-05T09:20:00Z,26.4040,-90.7920,3.0,4.0,150.0,5.0, 
ADCP,ioos:station:wmo:42395:2,2017-08-05T09:40:00Z,26.4040,-90.7920,3.0,4.1,149.0,5.3, 
ADCP,ioos:station:wmo:42395:2,2017-08-05T10:40:00Z,26.4040,-90.7920,3.0,4.0,150.0,5.0, 
ADCP,ioos:station:wmo:42395:2,2017-08-05T11:40:00Z,26.4040,-90.7920,3.0,4.0,150.0,5.0, 
ADCP,ioos:station:wmo:42395:2,2017-08-05T13:20:00Z,26.4040,-90.7920,3.0,4.0,150.0,5.0, 
ADCP,ioos:station:wmo:42395:2,2017-08-05T14:20:00Z,26.4040,-90.7920,3.0,3.0,150.0,4.0, 
ADCP,ioos:station:wmo:42395:2,2017-08-05T15:20:00Z,26.4040,-90.7920,3.0,4.0,150.0,5.0, 
ADCP,ioos:station:wmo:42395:2,2017-08-05T16:20:00Z,26.4040,-90.7920,3.0,4.0,150.0,5.0, 
ADCP,ioos:station:wmo:42395:2,2017-08-05T17:40:00Z,26.4040,-90.7920,3.0,5.0,140.0,6.0, 
ADCP,ioos:station:wmo:42395:2,2017-08-05T18:40:00Z,26.4040,-90.7920,3.0,4.0,140.0,6.0, 
ADCP,ioos:station:wmo:42395:2,2017-08-05T20:20:00Z,26.4040,-90.7920,3.0,3.0,170.0,4.0, 
ADCP,ioos:station:wmo:42395:2,2017-08-05T21:20:00Z,26.4040,-90.7920,3.0,1.9,164.0,2.8, 
ADCP,ioos:station:wmo:42395:2,2017-08-05T22:20:00Z,26.4040,-90.7920,3.0,2.0,160.0,3.0, 
ADCP,ioos:station:wmo:42395:2,2017-08-05T23:20:00Z,26.4040,-90.7920,3.0,2.0,155.0,2.9, 
ADCP,ioos:station:wmo:42395:2,2017-08-06T00:40:00Z,26.4040,-90.7920,3.0,2.4,109.0,3.1, 
ADCP,ioos:station:wmo:42395:2,2017-08-06T01:40:00Z,26.4040,-90.7920,3.0,3.0,120.0,5.0, 
ADCP,ioos:station:wmo:42395:2,2017-08-06T03:20:00Z,26.4040,-90.7920,3.0,4.0,120.0,5.0, 
ADCP,ioos:station:wmo:42395:2,2017-08-06T04:20:00Z,26.4040,-90.7920,3.0,5.0,120.0,7.0, 
ADCP,ioos:station:wmo:42395:2,2017-08-06T05:20:00Z,26.4040,-90.7920,3.0,4.0,120.0,5.0, 
ADCP,ioos:station:wmo:42395:2,2017-08-06T06:20:00Z,26.4040,-90.7920,3.0,5.0,130.0,7.0, 
ADCP,ioos:station:wmo:42395:2,2017-08-06T07:40:00Z,26.4040,-90.7920,3.0,5.0,140.0,7.0, 
ADCP,ioos:station:wmo:42395:2,2017-08-06T08:40:00Z,26.4040,-90.7920,3.0,5.0,130.0,7.0, 
ADCP,ioos:station:wmo:42395:2,2017-08-06T10:20:00Z,26.4040,-90.7920,3.0,6.0,120.0,8.0, 
ADCP,ioos:station:wmo:42395:2,2017-08-06T11:20:00Z,26.4040,-90.7920,3.0,5.0,130.0,7.0, 
ADCP,ioos:station:wmo:42395:2,2017-08-06T12:20:00Z,26.4040,-90.7920,3.0,6.0,130.0,7.0, 
ADCP,ioos:station:wmo:42395:2,2017-08-06T13:20:00Z,26.4040,-90.7920,3.0,7.0,130.0,8.0, 
ADCP,ioos:station:wmo:42395:2,2017-08-06T14:40:00Z,26.4040,-90.7920,3.0,6.0,140.0,7.0, 
ADCP,ioos:station:wmo:42395:2,2017-08-06T15:40:00Z,26.4040,-90.7920,3.0,6.0,140.0,8.0, 
ADCP,ioos:station:wmo:42395:2,2017-08-06T17:20:00Z,26.4040,-90.7920,3.0,5.0,160.0,6.0, 
ADCP,ioos:station:wmo:42395:2,2017-08-06T18:20:00Z,26.4040,-90.7920,3.0,5.0,160.0,6.0, 
ADCP,ioos:station:wmo:42395:2,2017-08-06T19:20:00Z,26.4040,-90.7920,3.0,4.0,160.0,5.0, 
ADCP,ioos:station:wmo:42395:2,2017-08-06T20:20:00Z,26.4040,-90.7920,3.0,3.0,150.0,4.0, 
ADCP,ioos:station:wmo:42395:2,2017-08-06T21:40:00Z,26.4040,-90.7920,3.0,3.2,138.0,4.3, 
ADCP,ioos:station:wmo:42395:2,2017-08-06T23:00:00Z,26.4040,-90.7920,3.0,4.0,120.0,5.0, 
ADCP,ioos:station:wmo:42395:2,2017-08-07T00:20:00Z,26.4040,-90.7920,3.0,5.0,120.0,6.0, 
ADCP,ioos:station:wmo:42395:2,2017-08-07T01:20:00Z,26.4040,-90.7920,3.0,5.0,120.0,6.0, 
ADCP,ioos:station:wmo:42395:2,2017-08-07T02:20:00Z,26.4040,-90.7920,3.0,5.0,120.0,6.0, 
ADCP,ioos:station:wmo:42395:2,2017-08-07T03:40:00Z,26.4040,-90.7920,3.0,5.0,110.0,7.0, 
ADCP,ioos:station:wmo:42395:2,2017-08-07T04:40:00Z,26.4040,-90.7920,3.0,7.0,120.0,8.0, 
ADCP,ioos:station:wmo:42395:2,2017-08-07T06:00:00Z,26.4040,-90.7920,3.0,7.0,140.0,9.0, 
ADCP,ioos:station:wmo:42395:2,2017-08-07T07:20:00Z,26.4040,-90.7920,3.0,5.0,150.0,7.0, 
ADCP,ioos:station:wmo:42395:2,2017-08-07T08:20:00Z,26.4040,-90.7920,3.0,6.0,150.0,7.0, 
ADCP,ioos:station:wmo:42395:2,2017-08-07T09:20:00Z,26.4040,-90.7920,3.0,5.0,150.0,6.0, 
ADCP,ioos:station:wmo:42395:2,2017-08-07T10:40:00Z,26.4040,-90.7920,3.0,4.0,150.0,5.0, 
ADCP,ioos:station:wmo:42395:2,2017-08-07T11:40:00Z,26.4040,-90.7920,3.0,2.0,160.0,4.0, 
ADCP,ioos:station:wmo:42395:2,2017-08-07T13:00:00Z,26.4040,-90.7920,3.0,4.0,120.0,5.0, 
ADCP,ioos:station:wmo:42395:2,2017-08-07T14:20:00Z,26.4040,-90.7920,3.0,4.0,110.0,6.0, 
ADCP,ioos:station:wmo:42395:2,2017-08-07T15:20:00Z,26.4040,-90.7920,3.0,4.0,110.0,5.0, 
ADCP,ioos:station:wmo:42395:2,2017-08-07T16:20:00Z,26.4040,-90.7920,3.0,5.0,110.0,6.0, 
ADCP,ioos:station:wmo:42395:2,2017-08-07T17:40:00Z,26.4040,-90.7920,3.0,4.0,110.0,6.0, 
ADCP,ioos:station:wmo:42395:2,2017-08-07T19:00:00Z,26.4040,-90.7920,3.0,6.0,110.0,8.0, 
ADCP,ioos:station:wmo:42395:2,2017-08-07T20:00:00Z,26.4040,-90.7920,3.0,5.0,130.0,6.0, 
ADCP,ioos:station:wmo:42395:2,2017-08-07T21:20:00Z,26.4040,-90.7920,3.0,5.0,120.0,6.0, 
ADCP,ioos:station:wmo:42395:2,2017-08-07T22:20:00Z,26.4040,-90.7920,3.0,4.0,140.0,5.0, 
ADCP,ioos:station:wmo:42395:2,2017-08-07T23:20:00Z,26.4040,-90.7920,3.0,4.0,110.0,5.0, 
ADCP,ioos:station:wmo:42395:2,2017-08-08T00:40:00Z,26.4040,-90.7920,3.0,4.0,100.0,6.0, 
ADCP,ioos:station:wmo:42395:2,2017-08-08T01:40:00Z,26.4040,-90.7920,3.0,5.0,100.0,7.0, 
ADCP,ioos:station:wmo:42395:2,2017-08-08T03:20:00Z,26.4040,-90.7920,3.0,6.0,80.0,7.0, 
ADCP,ioos:station:wmo:42395:2,2017-08-08T04:20:00Z,26.4040,-90.7920,3.0,7.0,90.0,9.0, 
ADCP,ioos:station:wmo:42395:2,2017-08-08T05:20:00Z,26.4040,-90.7920,3.0,7.0,100.0,9.0, 
ADCP,ioos:station:wmo:42395:2,2017-08-08T06:20:00Z,26.4040,-90.7920,3.0,6.0,100.0,7.0, 
ADCP,ioos:station:wmo:42395:2,2017-08-08T07:40:00Z,26.4040,-90.7920,3.0,7.0,100.0,9.0, 
ADCP,ioos:station:wmo:42395:2,2017-08-08T08:40:00Z,26.4040,-90.7920,3.0,5.0,90.0,6.0, 
ADCP,ioos:station:wmo:42395:2,2017-08-08T10:20:00Z,26.4040,-90.7920,3.0,6.0,90.0,8.0, 
ADCP,ioos:station:wmo:42395:2,2017-08-08T11:20:00Z,26.4040,-90.7920,3.0,5.0,90.0,6.0, 
ADCP,ioos:station:wmo:42395:2,2017-08-08T12:20:00Z,26.4040,-90.7920,3.0,5.0,100.0,7.0, 
ADCP,ioos:station:wmo:42395:2,2017-08-08T13:20:00Z,26.4040,-90.7920,3.0,5.0,90.0,6.0, 
ADCP,ioos:station:wmo:42395:2,2017-08-08T14:40:00Z,26.4040,-90.7920,3.0,6.0,110.0,7.0, 
ADCP,ioos:station:wmo:42395:2,2017-08-08T15:40:00Z,26.4040,-90.7920,3.0,6.0,100.0,8.0, 
ADCP,ioos:station:wmo:42395:2,2017-08-10T17:20:00Z,26.4040,-90.7920,3.0,5.2,124.0,6.3, 
ADCP,ioos:station:wmo:42395:2,2017-08-10T18:20:00Z,26.4040,-90.7920,3.0,4.9,120.0,6.1, 
ADCP,ioos:station:wmo:42395:2,2017-08-10T19:20:00Z,26.4040,-90.7920,3.0,4.2,129.0,5.7, 
ADCP,ioos:station:wmo:42395:2,2017-08-10T20:40:00Z,26.4040,-90.7920,3.0,3.8,126.0,5.1, 
ADCP,ioos:station:wmo:42395:2,2017-08-10T22:00:00Z,26.4040,-90.7920,3.0,3.2,109.0,4.6, 
ADCP,ioos:station:wmo:42395:2,2017-08-10T23:20:00Z,26.4040,-90.7920,3.0,3.3,91.0,4.5, 
ADCP,ioos:station:wmo:42395:2,2017-08-11T00:20:00Z,26.4040,-90.7920,3.0,3.2,81.0,5.1, 
ADCP,ioos:station:wmo:42395:2,2017-08-11T01:20:00Z,26.4040,-90.7920,3.0,3.5,74.0,5.3, 
ADCP,ioos:station:wmo:42395:2,2017-08-11T02:20:00Z,26.4040,-90.7920,3.0,4.6,99.0,5.7, 
ADCP,ioos:station:wmo:42395:2,2017-08-11T03:40:00Z,26.4040,-90.7920,3.0,4.9,90.0,6.7, 
ADCP,ioos:station:wmo:42395:2,2017-08-11T05:00:00Z,26.4040,-90.7920,3.0,5.7,90.0,7.0, 
ADCP,ioos:station:wmo:42395:2,2017-08-11T06:20:00Z,26.4040,-90.7920,3.0,5.3,96.0,6.6, 
ADCP,ioos:station:wmo:42395:2,2017-08-11T07:20:00Z,26.4040,-90.7920,3.0,5.7,108.0,7.1, 
ADCP,ioos:station:wmo:42395:2,2017-08-11T08:20:00Z,26.4040,-90.7920,3.0,5.6,114.0,7.0, 
ADCP,ioos:station:wmo:42395:2,2017-08-11T09:40:00Z,26.4040,-90.7920,3.0,5.5,107.0,6.9, 
ADCP,ioos:station:wmo:42395:2,2017-08-11T10:40:00Z,26.4040,-90.7920,3.0,5.5,127.0,7.0, 
ADCP,ioos:station:wmo:42395:2,2017-08-11T12:00:00Z,26.4040,-90.7920,3.0,5.0,130.0,6.0, 
ADCP,ioos:station:wmo:42395:2,2017-08-11T13:20:00Z,26.4040,-90.7920,3.0,4.0,140.0,5.0, 
ADCP,ioos:station:wmo:42395:2,2017-08-11T14:20:00Z,26.4040,-90.7920,3.0,2.8,131.0,3.5, 
ADCP,ioos:station:wmo:42395:2,2017-08-11T15:20:00Z,26.4040,-90.7920,3.0,2.7,153.0,3.5, 
ADCP,ioos:station:wmo:42395:2,2017-08-11T16:40:00Z,26.4040,-90.7920,3.0,2.9,161.0,3.9, 
ADCP,ioos:station:wmo:42395:2,2017-08-11T17:40:00Z,26.4040,-90.7920,3.0,2.0,170.0,3.0, 
ADCP,ioos:station:wmo:42395:2,2017-08-11T19:00:00Z,26.4040,-90.7920,3.0,2.0,150.0,3.0, 
ADCP,ioos:station:wmo:42395:2,2017-08-11T20:20:00Z,26.4040,-90.7920,3.0,2.0,250.0,3.0, 
ADCP,ioos:station:wmo:42395:2,2017-08-11T21:20:00Z,26.4040,-90.7920,3.0,1.0,140.0,2.0, 
ADCP,ioos:station:wmo:42395:2,2017-08-11T22:20:00Z,26.4040,-90.7920,3.0,0.0,-9999.0,2.0, 
ADCP,ioos:station:wmo:42395:2,2017-08-11T23:40:00Z,26.4040,-90.7920,3.0,0.0,-9999.0,1.0, 
ADCP,ioos:station:wmo:42395:2,2017-08-12T01:00:00Z,26.4040,-90.7920,3.0,0.0,-9999.0,1.0, 
ADCP,ioos:station:wmo:42395:2,2017-08-12T02:20:00Z,26.4040,-90.7920,3.0,1.0,80.0,2.0, 
ADCP,ioos:station:wmo:42395:2,2017-08-12T03:20:00Z,26.4040,-90.7920,3.0,2.0,90.0,3.0, 
ADCP,ioos:station:wmo:42395:2,2017-08-12T04:20:00Z,26.4040,-90.7920,3.0,2.0,110.0,3.0, 
ADCP,ioos:station:wmo:42395:2,2017-08-12T05:20:00Z,26.4040,-90.7920,3.0,3.0,110.0,5.0, 
ADCP,ioos:station:wmo:42395:2,2017-08-12T06:40:00Z,26.4040,-90.7920,3.0,2.0,120.0,4.0, 
ADCP,ioos:station:wmo:42395:2,2017-08-12T07:40:00Z,26.4040,-90.7920,3.0,2.0,140.0,3.0, 
ADCP,ioos:station:wmo:42395:2,2017-08-12T09:20:00Z,26.4040,-90.7920,3.0,3.0,170.0,4.0, 
ADCP,ioos:station:wmo:42395:2,2017-08-12T10:20:00Z,26.4040,-90.7920,3.0,3.0,170.0,4.0, 
ADCP,ioos:station:wmo:42395:2,2017-08-12T11:20:00Z,26.4040,-90.7920,3.0,3.0,190.0,5.0, 
ADCP,ioos:station:wmo:42395:2,2017-08-12T12:20:00Z,26.4040,-90.7920,3.0,3.0,200.0,5.0, 
ADCP,ioos:station:wmo:42395:2,2017-08-12T13:40:00Z,26.4040,-90.7920,3.0,3.0,190.0,4.0, 
ADCP,ioos:station:wmo:42395:2,2017-08-12T14:40:00Z,26.4040,-90.7920,3.0,3.0,220.0,4.0, 
ADCP,ioos:station:wmo:42395:2,2017-08-12T16:20:00Z,26.4040,-90.7920,3.0,2.0,240.0,4.0, 
ADCP,ioos:station:wmo:42395:2,2017-08-12T17:20:00Z,26.4040,-90.7920,3.0,3.0,260.0,4.0, 
ADCP,ioos:station:wmo:42395:2,2017-08-12T18:20:00Z,26.4040,-90.7920,3.0,2.0,220.0,3.0, 
ADCP,ioos:station:wmo:42395:2,2017-08-12T19:20:00Z,26.4040,-90.7920,3.0,3.0,210.0,4.0, 
ADCP,ioos:station:wmo:42395:2,2017-08-12T20:40:00Z,26.4040,-90.7920,3.0,2.0,230.0,3.0, 
ADCP,ioos:station:wmo:42395:2,2017-08-12T21:40:00Z,26.4040,-90.7920,3.0,1.8,228.0,2.9, 
ADCP,ioos:station:wmo:42395:2,2017-08-12T23:20:00Z,26.4040,-90.7920,3.0,0.0,-9999.0,2.0, 
ADCP,ioos:station:wmo:42395:2,2017-08-13T00:20:00Z,26.4040,-90.7920,3.0,1.0,200.0,2.0, 
ADCP,ioos:station:wmo:42395:2,2017-08-13T01:20:00Z,26.4040,-90.7920,3.0,1.0,210.0,1.0, 
ADCP,ioos:station:wmo:42395:2,2017-08-13T02:20:00Z,26.4040,-90.7920,3.0,1.0,180.0,2.0, 
ADCP,ioos:station:wmo:42395:2,2017-08-13T03:40:00Z,26.4040,-90.7920,3.0,2.0,180.0,2.0, 
ADCP,ioos:station:wmo:42395:2,2017-08-13T04:40:00Z,26.4040,-90.7920,3.0,1.0,180.0,2.0, 
ADCP,ioos:station:wmo:42395:2,2017-08-13T06:20:00Z,26.4040,-90.7920,3.0,1.0,200.0,1.0, 
ADCP,ioos:station:wmo:42395:2,2017-08-13T07:20:00Z,26.4040,-90.7920,3.0,1.0,230.0,2.0, 
ADCP,ioos:station:wmo:42395:2,2017-08-13T08:20:00Z,26.4040,-90.7920,3.0,2.0,210.0,3.0, 
ADCP,ioos:station:wmo:42395:2,2017-08-13T09:40:00Z,26.4040,-90.7920,3.0,2.0,190.0,3.0, 
ADCP,ioos:station:wmo:42395:2,2017-08-13T10:40:00Z,26.4040,-90.7920,3.0,3.0,200.0,4.0, 
ADCP,ioos:station:wmo:42395:2,2017-08-13T12:00:00Z,26.4040,-90.7920,3.0,3.0,190.0,4.0, 
ADCP,ioos:station:wmo:42395:2,2017-08-13T13:20:00Z,26.4040,-90.7920,3.0,3.0,190.0,4.0, 
ADCP,ioos:station:wmo:42395:2,2017-08-13T14:20:00Z,26.4040,-90.7920,3.0,2.0,210.0,4.0, 
ADCP,ioos:station:wmo:42395:2,2017-08-13T15:20:00Z,26.4040,-90.7920,3.0,3.0,200.0,3.0, 
ADCP,ioos:station:wmo:42395:2,2017-08-13T16:40:00Z,26.4040,-90.7920,3.0,1.0,190.0,2.0, 
ADCP,ioos:station:wmo:42395:2,2017-08-13T17:40:00Z,26.4040,-90.7920,3.0,3.0,210.0,4.0, 
ADCP,ioos:station:wmo:42395:2,2017-08-13T18:20:00Z,26.4040,-90.7920,3.0,5.0,-9999.0,-9999.0, 
ADCP,ioos:station:wmo:42395:2,2017-08-13T19:20:00Z,26.4040,-90.7920,3.0,1.0,160.0,2.0, 
ADCP,ioos:station:wmo:42395:2,2017-08-13T20:20:00Z,26.4040,-90.7920,3.0,1.0,160.0,2.0, 
ADCP,ioos:station:wmo:42395:2,2017-08-13T21:20:00Z,26.4040,-90.7920,3.0,1.0,170.0,2.0, 
ADCP,ioos:station:wmo:42395:2,2017-08-13T22:20:00Z,26.4040,-90.7920,3.0,1.0,140.0,2.0, 
ADCP,ioos:station:wmo:42395:2,2017-08-13T23:40:00Z,26.4040,-90.7920,3.0,1.0,120.0,1.0, 
ADCP,ioos:station:wmo:42395:2,2017-08-14T00:40:00Z,26.4040,-90.7920,3.0,2.0,130.0,3.0, 
ADCP,ioos:station:wmo:42395:2,2017-08-14T02:20:00Z,26.4040,-90.7920,3.0,3.0,120.0,4.0, 
ADCP,ioos:station:wmo:42395:2,2017-08-14T03:20:00Z,26.4040,-90.7920,3.0,4.0,130.0,5.0, 
ADCP,ioos:station:wmo:42395:2,2017-08-14T04:20:00Z,26.4040,-90.7920,3.0,4.0,130.0,5.0, 
ADCP,ioos:station:wmo:42395:2,2017-08-14T05:20:00Z,26.4040,-90.7920,3.0,4.0,140.0,6.0, 
ADCP,ioos:station:wmo:42395:2,2017-08-14T06:40:00Z,26.4040,-90.7920,3.0,5.0,150.0,7.0, 
ADCP,ioos:station:wmo:42395:2,2017-08-14T07:40:00Z,26.4040,-90.7920,3.0,5.0,150.0,7.0, 
ADCP,ioos:station:wmo:42395:2,2017-08-14T09:20:00Z,26.4040,-90.7920,3.0,4.0,170.0,5.0, 
ADCP,ioos:station:wmo:42395:2,2017-08-14T10:20:00Z,26.4040,-90.7920,3.0,4.0,160.0,5.0, 
ADCP,ioos:station:wmo:42395:2,2017-08-14T11:20:00Z,26.4040,-90.7920,3.0,4.0,170.0,5.0, 
ADCP,ioos:station:wmo:42395:2,2017-08-14T12:40:00Z,26.4040,-90.7920,3.0,5.0,150.0,6.0, 
ADCP,ioos:station:wmo:42395:2,2017-08-14T14:00:00Z,26.4040,-90.7920,3.0,5.0,140.0,7.0, 
ADCP,ioos:station:wmo:42395:2,2017-08-14T14:40:00Z,26.4040,-90.7920,3.0,4.0,150.0,6.0, 
ADCP,ioos:station:wmo:42395:2,2017-08-14T16:20:00Z,26.4040,-90.7920,3.0,5.0,150.0,6.0, 
ADCP,ioos:station:wmo:42395:2,2017-08-14T17:20:00Z,26.4040,-90.7920,3.0,4.0,150.0,5.0, 
ADCP,ioos:station:wmo:42395:2,2017-08-14T18:20:00Z,26.4040,-90.7920,3.0,5.0,120.0,6.0, 
ADCP,ioos:station:wmo:42395:2,2017-08-14T19:20:00Z,26.4040,-90.7920,3.0,5.0,170.0,7.0, 
ADCP,ioos:station:wmo:42395:2,2017-08-14T20:40:00Z,26.4040,-90.7920,3.0,5.0,190.0,6.0, 
ADCP,ioos:station:wmo:42395:2,2017-08-14T21:40:00Z,26.4040,-90.7920,3.0,4.3,184.0,5.6, 
ADCP,ioos:station:wmo:42395:2,2017-08-14T23:20:00Z,26.4040,-90.7920,3.0,4.0,170.0,5.0, 
ADCP,ioos:station:wmo:42395:2,2017-08-15T00:20:00Z,26.4040,-90.7920,3.0,4.0,170.0,5.0, 
ADCP,ioos:station:wmo:42395:2,2017-08-15T01:20:00Z,26.4040,-90.7920,3.0,4.0,150.0,5.0, 
ADCP,ioos:station:wmo:42395:2,2017-08-15T02:40:00Z,26.4040,-90.7920,3.0,6.0,140.0,7.0, 
ADCP,ioos:station:wmo:42395:2,2017-08-15T03:40:00Z,26.4040,-90.7920,3.0,6.1,152.0,7.1, 
ADCP,ioos:station:wmo:42395:2,2017-08-15T05:00:00Z,26.4040,-90.7920,3.0,6.0,150.0,8.0, 
ADCP,ioos:station:wmo:42395:2,2017-08-15T06:20:00Z,26.4040,-90.7920,3.0,7.0,140.0,9.0, 
ADCP,ioos:station:wmo:42395:2,2017-08-15T07:20:00Z,26.4040,-90.7920,3.0,7.0,140.0,9.0, 
ADCP,ioos:station:wmo:42395:2,2017-08-15T08:20:00Z,26.4040,-90.7920,3.0,7.0,150.0,9.0, 
ADCP,ioos:station:wmo:42395:2,2017-08-15T09:40:00Z,26.4040,-90.7920,3.0,6.0,150.0,8.0, 
ADCP,ioos:station:wmo:42395:2,2017-08-15T10:40:00Z,26.4040,-90.7920,3.0,6.0,170.0,7.0, 
ADCP,ioos:station:wmo:42395:2,2017-08-15T12:00:00Z,26.4040,-90.7920,3.0,8.0,160.0,10.0, 
ADCP,ioos:station:wmo:42395:2,2017-08-15T13:20:00Z,26.4040,-90.7920,3.0,7.0,160.0,9.0, 
ADCP,ioos:station:wmo:42395:2,2017-08-15T14:20:00Z,26.4040,-90.7920,3.0,9.0,170.0,11.0, 
ADCP,ioos:station:wmo:42395:2,2017-08-15T15:40:00Z,26.4040,-90.7920,3.0,9.0,180.0,10.0, 
ADCP,ioos:station:wmo:42395:2,2017-08-15T17:00:00Z,26.4040,-90.7920,3.0,6.1,182.0,8.0, 
ADCP,ioos:station:wmo:42395:2,2017-08-15T17:40:00Z,26.4040,-90.7920,3.0,6.0,170.0,8.0, 
ADCP,ioos:station:wmo:42395:2,2017-08-15T19:00:00Z,26.4040,-90.7920,3.0,5.0,190.0,6.0, 
ADCP,ioos:station:wmo:42395:2,2017-08-15T20:20:00Z,26.4040,-90.7920,3.0,5.0,190.0,7.0, 
ADCP,ioos:station:wmo:42395:2,2017-08-15T21:20:00Z,26.4040,-90.7920,3.0,4.0,190.0,6.0, 
ADCP,ioos:station:wmo:42395:2,2017-08-15T22:40:00Z,26.4040,-90.7920,3.0,3.0,190.0,4.0, 
ADCP,ioos:station:wmo:42395:2,2017-08-15T23:00:00Z,26.4040,-90.7920,3.0,2.7,-9999.0,99.0, 
ADCP,ioos:station:wmo:42395:2,2017-08-15T23:40:00Z,26.4040,-90.7920,3.0,4.0,170.0,5.0, 
ADCP,ioos:station:wmo:42395:2,2017-08-16T00:40:00Z,26.4040,-90.7920,3.0,3.0,140.0,4.0, 